Regional Weather Roundup
Issued by NWS Columbia, SC

Home | Current Version | Previous Version | Text Only | Print | Product List | Glossary On
Versions: 1 2 3 4 5 6 7 8 9 10 11 12 13 14 15 16 17 18 19 20 21 22 23 24 25 26 27 28 29 30 31 32 33 34 35 36 37 38 39 40 41 42 43 44 45 46 47 48 49 50
274
ASUS42 KCAE 171710
RWRCAE
REGIONAL WEATHER ROUNDUP
NATIONAL WEATHER SERVICE COLUMBIA SC
1200 PM EST FRI JAN 17 2020

NOTE: "FAIR" INDICATES FEW OR NO CLOUDS BELOW 12,000 FEET WITH NO
SIGNIFICANT WEATHER AND/OR OBSTRUCTIONS TO VISIBILITY.

NOT ALL STATIONS ARE QUALITY CONTROLLED BY THE NATIONAL
WEATHER SERVICE. USE DATA WITH CAUTION...ESPECIALLY
DEWPOINT OBSERVATIONS.

SCZ001>056-GAZ040-063>065-077-171800-
...UPSTATE SOUTH CAROLINA...

CITY           SKY/WX    TMP DP  RH WIND       PRES   REMARKS
ANDERSON       FAIR      50  18  28 NE12      30.63R
LIBERTY        FAIR      49  19  30 SE10      30.61F
SPARTANBURG    FAIR      46  12  25 E7        30.64F
CLEMSON        FAIR      47  16  29 NE13      30.63S
GREENVILLE     FAIR      48  16  27 NE12      30.63F
GREENWOOD      FAIR      48  14  25 NE12G20   30.65F
GREER          FAIR      47  16  29 NE12      30.63F
ROCK HILL      FAIR      46  11  24 NE10G16   30.66F
CHESTER        FAIR      46  14  27 NE12G18   30.66F
LAURENS        FAIR      46  18  31 NE8G22    30.64F


...CENTRAL SOUTH CAROLINA...

CITY           SKY/WX    TMP DP  RH WIND       PRES   REMARKS
COLUMBIA APT   FAIR      49  13  23 E10G22    30.64F
COLUMBIA OWENS FAIR      49  16  26 VRB6      30.65F
MCENTIRE ANGB  MOSUNNY   49  16  26 NE9       30.64F
ORANGEBURG     FAIR      49  17  28 NE14      30.63F
SUMTER SHAW    MOSUNNY   49  15  25 NE16      30.64F
NEWBERRY       FAIR      46  18  31 E9        30.68S
AIKEN          FAIR      49  14  24 NE15G22   30.63F
BARNWELL       FAIR      52  16  24 E14       30.63S
MANNING        FAIR      46  16  29 NE12G18   30.64F
CAMDEN         FAIR      46  14  27 NE12      30.66F HAZE
LANCASTER      FAIR      48  16  27 NE9G15    30.65F
WINNSBORO      FAIR      48  16  27 NE13G21   30.64F


...EASTERN AND COASTAL SOUTH CAROLINA...

CITY           SKY/WX    TMP DP  RH WIND       PRES   REMARKS
MYRTLE BEACH   FAIR      48  20  32 N9G17     30.64F
N MYRTLE BCH   FAIR      49  20  31 N15G21    30.63F
CONWAY         FAIR      46  21  36 N7        30.65S
MARION         FAIR      46  21  36 N15       30.67F
HARTSVILLE     FAIR      46  14  27 NE10G17   30.66F
FLORENCE       FAIR      49  15  25 NE16G23   30.66F
DARLINGTON     FAIR      47  20  34 NE12G21   30.67F
CHARLESTON APT FAIR      52  21  29 NE14      30.61F
MOUNT PLEASANT FAIR      52  21  30 NE8G16    30.61F
WALTERBORO     FAIR      52  18  25 E9        30.63S
BEAUFORT       FAIR      55  21  26 NE8G20    30.60F
HILTON HEAD    SUNNY     54  23  30 NE17G26   30.60S


...EASTERN GEORGIA...

CITY           SKY/WX    TMP DP  RH WIND       PRES   REMARKS
AUGUSTA BUSH F FAIR      54  17  23 E15       30.61F
AUGUSTA DANIEL FAIR      53  11  18 E14G23    30.61F
THOMSON        FAIR      51  17  26 SE10      30.61F
WASHINGTON     FAIR      50  21  32 E8G16     30.62R
CLAXTON        FAIR      59  24  26 NE10      30.58F
SYLVANIA       FAIR      55  24  29 E8G16     30.61S
STATESBORO     FAIR      54  21  27 E7        30.59F
SAVANNAH       FAIR      59  22  24 NE13      30.58F


...SOUTHERN NORTH CAROLINA...

CITY           SKY/WX    TMP DP  RH WIND       PRES   REMARKS
CHARLOTTE      FAIR      46  13  26 N12G21    30.67F
MONROE         FAIR      45  16  31 NE13      30.65F
WADESBORO      FAIR      45  12  26 N12       30.67F
ROCKINGHAM     FAIR      44   3  18 N7        30.67F
RUTHERFORDTON  FAIR      45  16  31 E7        30.65F
ASHEVILLE      FAIR      44  16  32 S3        30.58F

$$




USA.gov is the U.S. government's official web portal to all federal, state and local government web resources and services.